FW1396 Weather Reports


Display with metric or nautical units.
time (UTC)temp
F
wind
direction
speed
MPH
gust
MPH
rain 1hr
in
rain 24hr
in
rain mn
in
humidity
%
barometer
mb
20260906194149 99 56 3.0 12.0 0.00 0.00 0.00 55 995.9
20260906193649 99 16 4.0 12.0 0.00 0.00 0.00 55 995.9
20260906193151 99 20 4.0 13.0 0.00 0.00 0.00 55 995.9
20260906192649 99 68 6.0 13.0 0.00 0.00 0.00 55 995.9
20260906192422 98 99 2.0 7.0 0.00 0.00 0.00 55 996.0
20260906191651 98 131 3.0 7.0 0.00 0.00 0.00 55 996.1
20260906191150 99 94 4.0 5.0 0.00 0.00 0.00 57 996.2
20260906190649 98 127 4.0 11.0 0.00 0.00 0.00 56 996.2
20260906190149 98 13 5.0 11.0 0.00 0.00 0.00 56 996.4
20260906185649 98 79 4.0 11.0 0.00 0.00 0.00 57 996.4
20260906185149 98 93 4.0 10.0 0.00 0.00 0.00 56 996.5
20260906184647 98 124 6.0 10.0 0.00 0.00 0.00 57 996.6
20260906184149 98 68 2.0 4.0 0.00 0.00 0.00 56 996.6
20260906183648 98 56 0.0 1.0 0.00 0.00 0.00 57 996.5
20260906183418 97 102 3.0 4.0 0.00 0.00 0.00 57 996.6
20260906182646 97 102 3.0 13.0 0.00 0.00 0.00 57 996.6
20260906182418 97 100 6.0 13.0 0.00 0.00 0.00 57 996.9
20260906181646 98 85 4.0 9.0 0.00 0.00 0.00 58 996.9
20260906181145 98 1 4.0 9.0 0.00 0.00 0.00 57 996.9
20260906180916 98 71 4.0 9.0 0.00 0.00 0.00 57 997.0
20260906180141 98 96 2.0 6.0 0.00 0.00 0.00 59 997.1
20260906175645 97 65 2.0 6.0 0.00 0.00 0.00 59 997.2
20260906175413 97 0 3.0 7.0 0.00 0.00 0.00 59 997.3
20260906174643 97 82 3.0 9.0 0.00 0.00 0.00 58 997.4
20260906174142 96 72 5.0 11.0 0.00 0.00 0.00 57 997.5
20260906173643 97 55 5.0 11.0 0.00 0.00 0.00 59 997.6
20260906173144 96 94 2.0 7.0 0.00 0.00 0.00 61 997.5
20260906172642 96 113 3.0 10.0 0.00 0.00 0.00 61 997.6
20260906172144 96 85 3.0 10.0 0.00 0.00 0.00 61 997.7
20260906171914 96 127 4.0 9.0 0.00 0.00 0.00 62 997.8
20260906171143 96 151 4.0 9.0 0.00 0.00 0.00 62 997.8
20260906170644 95 99 3.0 5.0 0.00 0.00 0.00 62 998.0
20260906170142 95 172 2.0 9.0 0.00 0.00 0.00 63 998.0
20260906165644 94 54 3.0 9.0 0.00 0.00 0.00 63 998.1
20260906165142 94 65 4.0 12.0 0.00 0.00 0.00 63 998.2
20260906164643 95 85 7.0 12.0 0.00 0.00 0.00 63 998.1
20260906163641 94 7 4.0 10.0 0.00 0.00 0.00 65 998.1
20260906163143 94 110 6.0 10.0 0.00 0.00 0.00 66 998.2
20260906162642 94 83 3.0 9.0 0.00 0.00 0.00 66 998.2
20260906162413 93 93 6.0 9.0 0.00 0.00 0.00 67 998.3
20260906161642 93 100 4.0 9.0 0.00 0.00 0.00 67 998.4
20260906161144 92 140 3.0 9.0 0.00 0.00 0.00 67 998.5
20260906160641 92 176 4.0 9.0 0.00 0.00 0.00 69 998.5
20260906160413 92 49 6.0 9.0 0.00 0.00 0.00 68 998.5
20260906155641 92 90 4.0 9.0 0.00 0.00 0.00 69 998.3
20260906155142 91 109 2.0 7.0 0.00 0.00 0.00 70 998.2
20260906154641 91 83 5.0 9.0 0.00 0.00 0.00 71 998.3
20260906154411 90 66 5.0 10.0 0.00 0.00 0.00 71 998.3
20260906153641 90 78 5.0 10.0 0.00 0.00 0.00 71 998.3
20260906153140 90 65 6.0 10.0 0.00 0.00 0.00 71 998.3
20260906152640 90 80 4.0 5.0 0.00 0.00 0.00 72 998.3
20260906152142 89 83 2.0 7.0 0.00 0.00 0.00 73 998.3
20260906151641 89 102 5.0 7.0 0.00 0.00 0.00 75 998.3
20260906151140 88 61 3.0 5.0 0.00 0.00 0.00 75 998.3
20260906150910 88 92 3.0 7.0 0.00 0.00 0.00 74 998.3
20260906150140 88 80 2.0 7.0 0.00 0.00 0.00 75 998.3
20260906145640 87 159 2.0 6.0 0.00 0.00 0.00 75 998.4
20260906145410 87 65 4.0 6.0 0.00 0.00 0.00 76 998.4
20260906144639 87 55 2.0 3.0 0.00 0.00 0.00 77 998.4
20260906144138 87 55 2.0 3.0 0.00 0.00 0.00 77 998.3
20260906143907 86 59 1.0 10.0 0.00 0.00 0.00 77 998.3
20260906143408 86 62 4.0 10.0 0.00 0.00 0.00 77 998.3
20260906142637 86 82 5.0 7.0 0.00 0.00 0.00 77 998.2
20260906142135 86 47 4.0 7.0 0.00 0.00 0.00 78 998.3
20260906141635 85 69 0.0 0.0 0.00 0.00 0.00 79 998.2
20260906141136 0 0.0 0.0 0.00 0.00 0.00 998.2
20260906140635 0 0.0 0.0 0.00 0.00 0.00 998.3
20260906140135 0 0.0 0.0 0.00 0.00 0.00 998.3
20260906135633 0 0.0 0.0 0.00 0.00 0.00 998.3
20260906135132 0 0.0 0.0 0.00 0.00 0.00 998.4
20260906134630 79 276 0.0 0.0 0.00 0.00 0.00 86 998.4
20260906134130 79 276 0.0 0.0 0.00 0.00 0.00 86 998.4
20260906133629 0 0.0 0.0 0.00 0.00 0.00 998.4
20260906133128 0 0.0 0.0 0.00 0.00 0.00 998.5
20260906132627 0 0.0 0.0 0.00 0.00 0.00 998.5
20260906131625 76 227 0.0 0.0 0.00 0.00 0.00 89 998.5
20260906131124 76 227 0.0 0.0 0.00 0.00 0.00 90 998.5
20260906130624 75 227 0.0 0.0 0.00 0.00 0.00 92 998.3
20260906130125 75 227 0.0 0.0 0.00 0.00 0.00 91 998.3
20260906125623 74 87 0.0 0.0 0.00 0.00 0.00 93 998.2
20260906124624 74 87 0.0 0.0 0.00 0.00 0.00 93 998.1
20260906124353 74 87 0.0 0.0 0.00 0.00 0.00 94 998.1
20260906123622 74 87 0.0 0.0 0.00 0.00 0.00 94 998.0
20260906123124 73 87 0.0 0.0 0.00 0.00 0.00 93 998.0
20260906122622 73 87 0.0 0.0 0.00 0.00 0.00 93 997.9
20260906122123 73 87 0.0 0.0 0.00 0.00 0.00 93 997.7
20260906121622 73 87 0.0 0.0 0.00 0.00 0.00 93 997.7
20260906121123 73 86 0.0 0.0 0.00 0.00 0.00 93 997.6
20260906120621 73 86 0.0 0.0 0.00 0.00 0.00 93 997.6
20260906120122 73 86 0.0 0.0 0.00 0.00 0.00 93 997.6
20260906115621 73 89 0.0 0.0 0.00 0.00 0.00 93 997.5
20260906115121 73 235 0.0 0.0 0.00 0.00 0.00 93 997.5
20260906114620 74 235 0.0 0.0 0.00 0.00 0.00 93 997.5
20260906114120 74 235 0.0 0.0 0.00 0.00 0.00 93 997.3
20260906113854 74 235 0.0 0.0 0.00 0.00 0.00 93 997.4
20260906113120 74 235 0.0 0.0 0.00 0.00 0.00 92 997.3
20260906112621 74 235 0.0 0.0 0.00 0.00 0.00 92 997.4
20260906112122 74 235 0.0 0.0 0.00 0.00 0.00 92 997.3
20260906111621 74 235 0.0 0.0 0.00 0.00 0.00 92 997.3
20260906111353 74 235 0.0 0.0 0.00 0.00 0.00 92 997.2
20260906110621 74 235 0.0 0.0 0.00 0.00 0.00 92 997.1
20260906110119 74 235 0.0 0.0 0.00 0.00 0.00 92 997.1
20260906105620 74 235 0.0 0.0 0.00 0.00 0.00 92 997.1
20260906105120 74 235 0.0 0.0 0.00 0.00 0.00 92 997.0
20260906104619 75 235 0.0 0.0 0.00 0.00 0.00 92 997.0
20260906104120 75 235 0.0 0.0 0.00 0.00 0.00 92 996.9
20260906103620 75 235 0.0 0.0 0.00 0.00 0.00 92 996.9
20260906103120 75 235 0.0 0.0 0.00 0.00 0.00 92 996.9
20260906102619 75 235 0.0 0.0 0.00 0.00 0.00 92 996.9
20260906102118 75 235 0.0 0.0 0.00 0.00 0.00 91 996.8
20260906101619 75 235 0.0 0.0 0.00 0.00 0.00 91 996.8
20260906101120 75 235 0.0 0.0 0.00 0.00 0.00 91 996.8
20260906100619 75 235 0.0 0.0 0.00 0.00 0.00 91 996.7
20260906100119 75 235 0.0 0.0 0.00 0.00 0.00 91 996.7
20260906095620 75 235 0.0 0.0 0.00 0.00 0.00 91 996.8
20260906095118 75 235 0.0 0.0 0.00 0.00 0.00 91 996.8
20260906094619 76 235 0.0 0.0 0.00 0.00 0.00 91 996.7
20260906094118 76 235 0.0 0.0 0.00 0.00 0.00 91 996.7
20260906093617 76 235 0.0 0.0 0.00 0.00 0.00 91 996.7
20260906093118 76 235 0.0 0.0 0.00 0.00 0.00 91 996.6
20260906092618 76 235 0.0 0.0 0.00 0.00 0.00 91 996.6
20260906092349 76 235 0.0 0.0 0.00 0.00 0.00 91 996.6
20260906091617 76 235 0.0 0.0 0.00 0.00 0.00 91 996.6
20260906091117 76 235 0.0 0.0 0.00 0.00 0.00 90 996.6
20260906090618 76 235 0.0 0.0 0.00 0.00 0.00 91 996.5
20260906090117 76 235 0.0 0.0 0.00 0.00 0.00 90 996.5
20260906085616 76 235 0.0 0.0 0.00 0.00 0.00 90 996.5
20260906085118 76 235 0.0 0.0 0.00 0.00 0.00 90 996.4
20260906084847 76 235 0.0 0.0 0.00 0.00 0.00 90 996.4
20260906084348 76 235 0.0 0.0 0.00 0.00 0.00 90 996.4
20260906083617 76 235 0.0 0.0 0.00 0.00 0.00 90 996.3
20260906083117 76 235 0.0 0.0 0.00 0.00 0.00 91 996.4
20260906082617 76 235 0.0 0.0 0.00 0.00 0.00 91 996.3
20260906082116 76 235 0.0 0.0 0.00 0.00 0.00 91 996.4
20260906081616 0 0.0 0.0 0.00 0.00 0.00 996.2
20260906081116 76 226 0.0 0.0 0.00 0.00 0.00 91 996.3
20260906080615 76 226 0.0 0.0 0.00 0.00 0.00 91 996.2
20260906080114 76 219 0.0 0.0 0.00 0.00 0.00 91 996.3
20260906075614 76 210 0.0 0.0 0.00 0.00 0.00 91 996.4
20260906075114 76 94 0.0 0.0 0.00 0.00 0.00 90 996.5
20260906074614 77 94 0.0 0.0 0.00 0.00 0.00 90 996.6
20260906074112 76 94 0.0 0.0 0.00 0.00 0.00 90 996.7
20260906073844 77 103 0.0 0.0 0.00 0.00 0.00 89 996.5
20260906073345 77 103 0.0 0.0 0.00 0.00 0.00 89 996.5
20260906072613 77 103 0.0 0.0 0.00 0.00 0.00 89 996.6
20260906072113 77 103 0.0 0.0 0.00 0.00 0.00 89 996.5
20260906071613 77 103 0.0 0.0 0.00 0.00 0.00 89 996.5
20260906071113 77 103 0.0 0.0 0.00 0.00 0.00 88 996.6
20260906070612 77 103 0.0 0.0 0.00 0.00 0.00 88 996.5
20260906070113 77 103 0.0 0.0 0.00 0.00 0.00 88 996.6
20260906065613 77 103 0.0 0.0 0.00 0.00 0.00 88 996.6
20260906065113 77 103 0.0 0.0 0.00 0.00 0.00 88 996.6
20260906064611 77 103 0.0 0.0 0.00 0.00 0.00 88 996.7
20260906064112 77 103 0.0 0.0 0.00 0.00 0.00 88 996.7
20260906063611 77 103 0.0 0.0 0.00 0.00 0.00 87 996.7
20260906063343 77 103 0.0 0.0 0.00 0.00 0.00 87 996.8
20260906062612 77 103 0.0 0.0 0.00 0.00 0.00 87 996.7
20260906062114 78 103 0.0 0.0 0.00 0.00 0.00 87 996.7
20260906061613 78 103 0.0 0.0 0.00 0.00 0.00 87 996.8
20260906061112 78 103 0.0 0.0 0.00 0.00 0.00 87 996.8
20260906060612 78 103 0.0 0.0 0.00 0.00 0.00 87 996.7
20260906060111 78 103 0.0 0.0 0.00 0.00 0.00 86 996.8
20260906055611 78 103 0.0 0.0 0.00 0.00 0.00 86 996.9
20260906055110 78 103 0.0 0.0 0.00 0.00 0.00 86 996.9
20260906054611 78 103 0.0 0.0 0.00 0.00 0.00 86 996.9
20260906054113 78 103 0.0 0.0 0.00 0.00 0.00 86 996.8
20260906053612 78 103 0.0 0.0 0.00 0.00 0.00 86 996.9
20260906053111 78 103 0.0 0.0 0.00 0.00 0.00 86 996.8
20260906052609 78 103 0.0 0.0 0.00 0.00 0.00 85 997.0
20260906052109 78 103 0.0 0.0 0.00 0.00 0.00 85 996.8
20260906051609 79 103 0.0 0.0 0.00 0.00 0.00 85 996.8
20260906051110 79 103 0.0 0.0 0.00 0.00 0.00 85 996.7
20260906050110 79 103 0.0 0.0 0.00 0.00 0.00 84 996.6
20260906045608 79 103 0.0 0.0 0.00 0.00 0.00 84 996.5
20260906045110 79 103 0.0 0.0 0.00 0.00 0.00 84 996.5
20260906044610 80 103 0.0 0.0 0.00 0.00 0.00 83 996.4
20260906044109 80 103 0.0 0.0 0.00 0.00 0.00 83 996.4
20260906043608 80 103 0.0 0.0 0.00 0.00 0.00 82 996.5
20260906043107 80 103 0.0 0.0 0.00 0.00 0.00 81 996.4
20260906042840 80 103 0.0 0.0 0.00 0.00 0.00 81 996.5
20260906042108 80 103 0.0 0.0 0.00 0.00 0.00 81 996.4
20260906041608 80 103 0.0 0.0 0.00 0.00 0.00 81 996.4
20260906041108 81 103 0.0 0.0 0.00 0.00 0.00 81 996.4
20260906040609 81 103 0.0 0.0 0.00 0.00 0.00 81 996.5
20260906040107 81 103 0.0 0.0 0.00 0.00 0.00 80 996.4
20260906035609 81 103 0.0 0.0 0.00 0.00 0.00 79 996.4
20260906035108 81 103 0.0 0.0 0.00 0.00 0.00 79 996.5
20260906034608 81 103 0.0 0.0 0.00 0.00 0.00 79 996.5
20260906034108 82 103 0.0 0.0 0.00 0.00 0.00 79 996.4
20260906033608 82 103 0.0 0.0 0.00 0.00 0.00 79 996.4
20260906033107 82 103 0.0 0.0 0.00 0.00 0.00 78 996.5
20260906032607 82 103 0.0 0.0 0.00 0.00 0.00 78 996.5
20260906032108 0 0.0 0.0 0.00 0.00 0.00 996.6
20260906031608 0 0.0 0.0 0.00 0.00 0.00 996.5
20260906031106 0 0.0 0.0 0.00 0.00 0.00 996.4
20260906030606 0 0.0 0.0 0.00 0.00 0.00 996.4
20260906025602 83 103 0.0 0.0 0.00 0.00 0.00 76 996.4
20260906025100 83 103 0.0 0.0 0.00 0.00 0.00 75 996.3
20260906024601 84 103 0.0 0.0 0.00 0.00 0.00 75 996.3
20260906024100 84 103 0.0 0.0 0.00 0.00 0.00 73 996.1
20260906023602 84 103 0.0 0.0 0.00 0.00 0.00 73 996.1
20260906023101 0 0.0 0.0 0.00 0.00 0.00 996.1
20260906022600 0 0.0 0.0 0.00 0.00 0.00 996.2
20260906022059 0 0.0 0.0 0.00 0.00 0.00 996.0
20260906021558 0 0.0 0.0 0.00 0.00 0.00 995.9
20260906021056 85 103 1.0 2.0 0.00 0.00 0.00 71 995.8
20260906020555 85 103 1.0 2.0 0.00 0.00 0.00 71 995.7
20260906020056 86 103 0.0 3.0 0.00 0.00 0.00 70 995.6
20260906015827 86 103 0.0 3.0 0.00 0.00 0.00 70 995.4
20260906015055 86 103 2.0 2.0 0.00 0.00 0.00 69 995.4
20260906014553 86 103 0.0 2.0 0.00 0.00 0.00 68 995.3
20260906014053 87 103 2.0 2.0 0.00 0.00 0.00 68 995.4
20260906013554 87 103 0.0 2.0 0.00 0.00 0.00 68 995.2
20260906013054 87 103 0.0 2.0 0.00 0.00 0.00 67 995.2
20260906012554 87 103 1.0 3.0 0.00 0.00 0.00 67 995.2
20260906012054 88 103 1.0 3.0 0.00 0.00 0.00 66 995.1
20260906011558 88 103 2.0 4.0 0.00 0.00 0.00 66 994.9
20260906011055 89 107 2.0 4.0 0.00 0.00 0.00 63 994.8
20260906010553 90 107 3.0 4.0 0.00 0.00 0.00 63 994.8
20260906010053 91 124 1.0 3.0 0.00 0.00 0.00 61 994.8
20260906005554 92 124 1.0 2.0 0.00 0.00 0.00 60 994.8
20260906005052 0 0.0 0.0 0.00 0.00 0.00 994.8
20260906004552 0 0.0 0.0 0.00 0.00 0.00 994.6
20260906004321 94 124 0.0 0.0 0.00 0.00 0.00 57 994.6
20260906003550 94 124 0.0 0.0 0.00 0.00 0.00 57 994.7
20260906003321 94 124 0.0 3.0 0.00 0.00 0.00 55 994.7
20260906002821 95 124 0.0 3.0 0.00 0.00 0.00 55 994.7
20260906001549 96 121 0.0 2.0 0.00 0.00 0.00 52 994.7
20260906001050 96 82 1.0 2.0 0.00 0.00 0.00 51 994.7
20260906000549 97 82 1.0 2.0 0.00 0.00 0.00 50 994.7
20260906000049 97 82 0.0 1.0 0.00 0.00 0.00 49 994.7
20260905235820 97 82 0.0 3.0 0.00 0.00 0.00 49 994.9
20260905235048 97 82 1.0 3.0 0.00 0.00 0.00 49 994.7
20260905234819 98 82 1.0 3.0 0.00 0.00 0.00 48 994.8
20260905234047 98 66 1.0 2.0 0.00 0.00 0.00 48 994.9
20260905233819 98 66 1.0 2.0 0.00 0.00 0.00 48 994.8
20260905233319 98 63 0.0 3.0 0.00 0.00 0.00 47 994.8
20260905232548 99 63 2.0 4.0 0.00 0.00 0.00 47 994.7
20260905232048 99 62 2.0 4.0 0.00 0.00 0.00 48 994.8
20260905231548 99 86 1.0 4.0 0.00 0.00 0.00 48 994.8
20260905231319 99 59 2.0 7.0 0.00 0.00 0.00 48 994.7
20260905230549 99 107 3.0 7.0 0.00 0.00 0.00 48 994.7
20260905230047 99 85 2.0 2.0 0.00 0.00 0.00 48 994.8
20260905225547 99 51 3.0 6.0 0.00 0.00 0.00 48 994.8
20260905225045 99 51 3.0 7.0 0.00 0.00 0.00 48 994.8
20260905224546 99 31 3.0 6.0 0.00 0.00 0.00 48 994.8
20260905224049 99 59 2.0 9.0 0.00 0.00 0.00 48 994.8
20260905223545 99 71 3.0 9.0 0.00 0.00 0.00 48 994.8
20260905223045 99 106 2.0 7.0 0.00 0.00 0.00 48 994.7
20260905222545 99 66 3.0 15.0 0.00 0.00 0.00 47 994.8
20260905222045 100 68 7.0 15.0 0.00 0.00 0.00 47 994.7
20260905221545 100 73 5.0 6.0 0.00 0.00 0.00 48 994.8
20260905221044 100 71 2.0 6.0 0.00 0.00 0.00 48 994.6
20260905220816 100 55 5.0 7.0 0.00 0.00 0.00 47 994.7
20260905220045 100 59 4.0 7.0 0.00 0.00 0.00 47 994.8
20260905215545 100 102 2.0 5.0 0.00 0.00 0.00 47 994.8
20260905215044 100 169 2.0 5.0 0.00 0.00 0.00 47 994.9
20260905214544 100 116 5.0 7.0 0.00 0.00 0.00 46 994.8
20260905214043 100 116 5.0 10.0 0.00 0.00 0.00 46 994.9
20260905213542 100 72 4.0 11.0 0.00 0.00 0.00 46 994.8
20260905213042 100 90 6.0 11.0 0.00 0.00 0.00 46 994.7
20260905212543 100 55 4.0 9.0 0.00 0.00 0.00 46 994.7
20260905212043 100 103 2.0 7.0 0.00 0.00 0.00 47 994.8
20260905211543 100 104 3.0 11.0 0.00 0.00 0.00 48 994.7
20260905211042 100 89 5.0 11.0 0.00 0.00 0.00 47 994.8
20260905210545 100 138 4.0 9.0 0.00 0.00 0.00 47 994.7
20260905210043 100 107 5.0 13.0 0.00 0.00 0.00 47 994.8
20260905205542 100 69 6.0 13.0 0.00 0.00 0.00 46 994.8
20260905205041 0 0.0 0.0 0.00 0.00 0.00 994.9
20260905204813 0 0.0 0.0 0.00 0.00 0.00 994.9
20260905204311 103 86 6.0 13.0 0.00 0.00 0.00 43 994.9
20260905203539 103 86 6.0 13.0 0.00 0.00 0.00 43 995.0
20260905203038 103 52 2.0 7.0 0.00 0.00 0.00 43 994.9
20260905202809 103 183 1.0 9.0 0.00 0.00 0.00 42 994.9
20260905202037 104 140 2.0 10.0 0.00 0.00 0.00 42 995.0
20260905201537 105 75 6.0 10.0 0.00 0.00 0.00 41 995.1
20260905201039 106 148 2.0 5.0 0.00 0.00 0.00 38 995.2
20260905200537 106 51 2.0 7.0 0.00 0.00 0.00 38 995.3
20260905200038 106 180 4.0 7.0 0.00 0.00 0.00 37 995.4
20260905195538 105 316 2.0 6.0 0.00 0.00 0.00 37 995.5
20260905195038 105 121 2.0 4.0 0.00 0.00 0.00 38 995.6
20260905194534 104 300 1.0 3.0 0.00 0.00 0.00 38 995.7